Flag for Germany Weather past 2 weeks in Bünde, North Rhine-Westphalia, Germany

Now
45 °F

Scattered clouds.


Feels Like: 39 °F
Forecast: 39 / 49 °F
Wind: 12 mph from South

Location: Bueckeburg


UV Index: 0 (Low)

Visibility: N/A


Pressure: 30.24 "Hg

Humidity: 53%

Dew point: 28 °F

Location of BündeLocation

Historic Weather in Bünde

°F

Bünde temperature yesterday

Maximum temperature yesterday: 57 °F (at 4:20 PM)
Minimum temperature yesterday: 30 °F (at 4:20 AM)
Average temperature yesterday: 45 °F

Past Weeks' High & Low Weather Summary

 TemperatureHumidityPressure
High72 °F (Apr 3, 4:20 PM)100% (Apr 5, 2:20 AM)30.48 "Hg (Apr 5, 2:20 AM)
Low30 °F (Apr 16, 4:20 AM)38% (Apr 2, 4:20 PM)29.62 "Hg (Apr 3, 3:20 PM)
Average51 °F75%30.01 "Hg
* Reported Apr 2 8:20 AM — Apr 17 8:20 AM, Bünde, Weather by CustomWeather, © 2014

Note: Actual official high and low records may vary slightly from our data, if they occured in-between our weather recording intervals... More about our weather records

Advertising

Historic Weather Conditions — Data for Previous 24 hours

 ConditionsComfort  
Time TempWeatherWind HumidityBarometerVisibility
8:20 AM
Apr 17
45 °FScattered clouds.12 mph53%30.24 "HgN/A
7:20 AM45 °FPassing clouds.10 mph49%30.27 "HgN/A
6:20 AM43 °FPassing clouds.10 mph53%30.27 "HgN/A
5:20 AM43 °FPassing clouds.10 mph53%30.30 "HgN/A
4:20 AM45 °FPassing clouds.9 mph49%30.30 "HgN/A
3:20 AM45 °FPassing clouds.8 mph53%30.33 "HgN/A
2:20 AM45 °FPassing clouds.9 mph57%30.33 "HgN/A
1:20 AM46 °FPassing clouds.10 mph53%30.36 "HgN/A
12:20 AM46 °FPassing clouds.8 mph53%30.36 "HgN/A
11:20 PM
Apr 16
45 °FPassing clouds.5 mph57%30.36 "HgN/A
10:20 PM46 °FPassing clouds.5 mph57%30.36 "HgN/A
9:20 PM48 °FScattered clouds.2 mph50%30.36 "HgN/A
8:20 PM52 °FScattered clouds.5 mph47%30.39 "HgN/A
7:20 PM54 °FPassing clouds.6 mph47%30.39 "HgN/A
6:20 PM55 °FPassing clouds.6 mph44%30.39 "HgN/A
5:20 PM55 °FScattered clouds.5 mph44%30.39 "HgN/A
4:20 PM57 °FScattered clouds.3 mph44%30.42 "HgN/A
3:20 PM55 °FScattered clouds.3 mph47%30.42 "HgN/A
2:20 PM54 °FScattered clouds.7 mph51%30.42 "HgN/A
1:20 PM54 °FPassing clouds.7 mph47%30.45 "HgN/A
12:20 PM52 °FPassing clouds.7 mph54%30.45 "HgN/A
11:20 AM50 °FPassing clouds.1 mph58%30.45 "HgN/A
10:20 AM46 °FPassing clouds.1 mph71%30.48 "HgN/A
9:20 AM41 °FPassing clouds.1 mph81%30.45 "HgN/A
Weather by CustomWeather, © 2014

See weather overview